N6CTG Weather Reports


Display with metric or nautical units.
time (UTC)temp
F
wind
direction
speed
MPH
gust
MPH
rain 1hr
in
rain 24hr
in
rain mn
in
humidity
%
barometer
mb
20260509164524 67 0 0.0 0.0 0.00 0.00 0.00 74 1010.9
20260509163603 65 0 0.0 0.0 0.00 0.00 0.00 81 1011.0
20260509162703 63 0 0.0 0.0 0.00 0.00 0.00 89 1011.0
20260509161824 61 219 0.0 2.0 0.00 0.00 0.00 91 1011.2
20260509160903 60 0 0.0 0.0 0.00 0.00 0.00 93 1011.2
20260509160003 59 0 0.0 0.0 0.00 0.00 0.00 94 1011.2
20260509155403 58 0 0.0 0.0 0.00 0.00 0.00 94 1011.2
20260509154524 57 0 0.0 0.0 0.00 0.00 0.00 94 1011.2
20260509153603 56 237 0.0 2.0 0.00 0.00 0.00 94 1011.2
20260509152703 56 0 0.0 0.0 0.00 0.00 0.00 94 1011.3
20260509151803 55 257 0.0 1.0 0.00 0.00 0.00 94 1011.3
20260509150903 55 253 0.0 1.0 0.00 0.00 0.00 94 1011.4
20260509150024 54 238 0.0 2.0 0.00 0.00 0.00 95 1011.3
20260509145403 54 0 0.0 0.0 0.00 0.00 0.00 95 1011.3
20260509144503 53 0 0.0 0.0 0.00 0.00 0.00 94 1011.3
20260509143604 53 0 0.0 0.0 0.00 0.00 0.00 94 1011.3
20260509142703 53 0 0.0 0.0 0.00 0.00 0.00 94 1011.5
20260509141803 53 0 0.0 0.0 0.00 0.00 0.00 94 1011.5
20260509140903 52 0 0.0 0.0 0.00 0.00 0.00 94 1011.5
20260509140003 52 0 0.0 0.0 0.00 0.00 0.00 94 1011.7
20260509135403 51 0 0.0 0.0 0.00 0.00 0.00 93 1011.7
20260509134503 51 0 0.0 0.0 0.00 0.00 0.00 93 1011.7
20260509133605 51 0 0.0 0.0 0.00 0.00 0.00 93 1011.7
20260509132703 51 0 0.0 0.0 0.00 0.00 0.00 93 1011.8
20260509131803 51 0 0.0 0.0 0.00 0.00 0.00 93 1011.7
20260509130924 51 0 0.0 0.0 0.00 0.00 0.00 93 1011.7
20260509130024 51 0 0.0 0.0 0.00 0.00 0.00 93 1011.8
20260509125403 51 0 0.0 0.0 0.00 0.00 0.00 93 1011.8
20260509124503 51 0 0.0 0.0 0.00 0.00 0.00 93 1011.8
20260509123603 51 0 0.0 0.0 0.00 0.00 0.00 93 1011.8
20260509122724 51 0 0.0 0.0 0.00 0.00 0.00 93 1011.7
20260509121804 51 0 0.0 0.0 0.00 0.00 0.00 93 1011.6
20260509120903 51 0 0.0 0.0 0.00 0.00 0.00 93 1011.6
20260509120004 51 0 0.0 0.0 0.00 0.00 0.00 93 1011.5
20260509115403 51 0 0.0 0.0 0.00 0.00 0.00 93 1011.5
20260509114503 53 0 0.0 0.0 0.00 0.00 0.00 93 1011.7
20260509113603 53 0 0.0 0.0 0.00 0.00 0.00 93 1011.7
20260509112704 53 0 0.0 0.0 0.00 0.00 0.00 93 1011.6
20260509111803 53 0 0.0 0.0 0.00 0.00 0.00 93 1011.6
20260509110925 53 0 0.0 0.0 0.00 0.00 0.00 93 1011.7
20260509110003 53 0 0.0 0.0 0.00 0.00 0.00 93 1011.7
20260509105424 53 0 0.0 0.0 0.00 0.00 0.00 92 1011.7
20260509104524 53 0 0.0 0.0 0.00 0.00 0.00 93 1011.7
20260509103625 53 0 0.0 0.0 0.00 0.00 0.00 93 1011.8
20260509102704 53 0 0.0 0.0 0.00 0.00 0.00 93 1011.8
20260509101803 53 0 0.0 0.0 0.00 0.00 0.00 92 1011.8
20260509100924 53 0 0.0 0.0 0.00 0.00 0.00 92 1011.8
20260509100004 52 0 0.0 0.0 0.00 0.00 0.00 92 1011.8
20260509095403 53 0 0.0 0.0 0.00 0.00 0.00 92 1011.8
20260509094503 53 0 0.0 0.0 0.00 0.00 0.00 92 1011.9
20260509093603 53 0 0.0 0.0 0.00 0.00 0.00 91 1012.0
20260509092724 53 0 0.0 0.0 0.00 0.00 0.00 92 1012.0
20260509091803 53 0 0.0 0.0 0.00 0.00 0.00 91 1012.1
20260509090903 53 0 0.0 0.0 0.00 0.00 0.00 92 1012.1
20260509090003 53 0 0.0 0.0 0.00 0.00 0.00 91 1012.1
20260509085425 53 0 0.0 0.0 0.00 0.00 0.00 91 1012.1
20260509084524 54 0 0.0 0.0 0.00 0.00 0.00 91 1012.1
20260509083603 54 0 0.0 0.0 0.00 0.00 0.00 91 1012.3
20260509082703 54 0 0.0 0.0 0.00 0.00 0.00 91 1012.4
20260509081803 55 0 0.0 0.0 0.00 0.00 0.00 91 1012.4
20260509080903 55 0 0.0 0.0 0.00 0.00 0.00 90 1012.5
20260509080003 55 0 0.0 0.0 0.00 0.00 0.00 90 1012.5
20260509075403 55 0 0.0 0.0 0.00 0.00 0.00 90 1012.6
20260509074503 55 0 0.0 0.0 0.00 0.00 0.00 90 1012.7
20260509073624 56 0 0.0 0.0 0.00 0.00 0.00 90 1012.8
20260509072703 56 0 0.0 0.0 0.00 0.00 0.00 90 1012.8
20260509071803 56 0 0.0 0.0 0.00 0.00 0.00 90 1012.8
20260509070903 56 0 0.0 0.0 0.00 0.00 0.00 89 1012.8
20260509070003 56 0 0.0 0.0 0.00 0.00 0.00 89 1012.9
20260509065424 57 0 0.0 0.0 0.00 0.00 0.00 89 1012.9
20260509064504 57 0 0.0 0.0 0.00 0.00 0.00 89 1012.9
20260509063603 57 0 0.0 0.0 0.00 0.00 0.00 89 1012.9
20260509062703 57 0 0.0 0.0 0.00 0.00 0.00 88 1012.9
20260509061803 58 0 0.0 0.0 0.00 0.00 0.00 88 1012.9
20260509060903 58 0 0.0 0.0 0.00 0.00 0.00 88 1012.9
20260509060003 58 0 0.0 0.0 0.00 0.00 0.00 87 1013.0
20260509055403 58 0 0.0 0.0 0.00 0.00 0.00 87 1013.0
20260509054503 59 0 0.0 0.0 0.00 0.00 0.00 86 1013.0
20260509053603 59 0 0.0 0.0 0.00 0.00 0.00 86 1013.1
20260509052703 59 0 0.0 0.0 0.00 0.00 0.00 86 1013.1
20260509051803 60 0 0.0 0.0 0.00 0.00 0.00 85 1013.1
20260509050903 60 0 0.0 0.0 0.00 0.00 0.00 84 1013.1
20260509050003 60 0 0.0 0.0 0.00 0.00 0.00 84 1013.1
20260509045403 61 0 0.0 0.0 0.00 0.00 0.00 83 1013.0
20260509044503 62 0 0.0 0.0 0.00 0.00 0.00 83 1013.0
20260509043604 62 0 0.0 0.0 0.00 0.00 0.00 83 1013.0
20260509042703 62 0 0.0 0.0 0.00 0.00 0.00 82 1012.9
20260509041803 63 0 0.0 0.0 0.00 0.00 0.00 82 1012.8
20260509040904 63 0 0.0 0.0 0.00 0.00 0.00 81 1012.7
20260509040003 64 0 0.0 0.0 0.00 0.00 0.00 80 1012.7
20260509035403 64 0 0.0 0.0 0.00 0.00 0.00 79 1012.6
20260509034503 64 0 0.0 0.0 0.00 0.00 0.00 79 1012.6
20260509033624 65 0 0.0 0.0 0.00 0.00 0.00 78 1012.5
20260509032704 65 0 0.0 0.0 0.00 0.00 0.00 77 1012.4
20260509031804 66 0 0.0 0.0 0.00 0.00 0.00 76 1012.4
20260509030903 66 0 0.0 0.0 0.00 0.00 0.00 75 1012.3
20260509030003 67 0 0.0 0.0 0.00 0.00 0.00 74 1012.3
20260509025424 67 0 0.0 0.0 0.00 0.00 0.00 73 1012.2
20260509024503 68 0 0.0 0.0 0.00 0.00 0.00 72 1012.1
20260509023603 69 244 1.0 3.0 0.00 0.00 0.00 71 1012.0
20260509022703 70 239 1.0 4.0 0.00 0.00 0.00 69 1012.0
20260509021825 71 242 1.0 4.0 0.00 0.00 0.00 67 1011.9
20260509020924 72 243 2.0 5.0 0.00 0.00 0.00 66 1011.7
20260509020003 72 242 2.0 5.0 0.00 0.00 0.00 65 1011.7
20260509015424 73 243 2.0 5.0 0.00 0.00 0.00 64 1011.6
20260509014503 73 241 3.0 7.0 0.00 0.00 0.00 63 1011.6
20260509013603 74 246 3.0 5.0 0.00 0.00 0.00 62 1011.6
20260509012703 74 239 3.0 6.0 0.00 0.00 0.00 62 1011.6
20260509011803 74 237 4.0 7.0 0.00 0.00 0.00 62 1011.6
20260509010903 75 243 3.0 6.0 0.00 0.00 0.00 60 1011.5
20260509010003 76 246 2.0 6.0 0.00 0.00 0.00 59 1011.5
20260509005403 76 251 2.0 8.0 0.00 0.00 0.00 59 1011.4
20260509004503 76 245 3.0 8.0 0.00 0.00 0.00 59 1011.5
20260509003603 76 247 4.0 8.0 0.00 0.00 0.00 59 1011.4
20260509002703 76 242 4.0 9.0 0.00 0.00 0.00 58 1011.4
20260509001803 76 243 5.0 8.0 0.00 0.00 0.00 58 1011.5
20260509000903 77 239 6.0 9.0 0.00 0.00 0.00 57 1011.5
20260509000003 77 242 6.0 10.0 0.00 0.00 0.00 57 1011.5
20260508235403 78 248 5.0 10.0 0.00 0.00 0.00 56 1011.6
20260508234503 78 249 5.0 11.0 0.00 0.00 0.00 55 1011.5
20260508233603 79 243 5.0 10.0 0.00 0.00 0.00 54 1011.4
20260508232703 79 238 6.0 10.0 0.00 0.00 0.00 54 1011.5
20260508231824 80 235 5.0 11.0 0.00 0.00 0.00 52 1011.5
20260508230903 81 236 6.0 11.0 0.00 0.00 0.00 51 1011.5
20260508230024 81 246 6.0 11.0 0.00 0.00 0.00 50 1011.6
20260508225403 82 248 5.0 11.0 0.00 0.00 0.00 48 1011.6
20260508224503 83 249 5.0 11.0 0.00 0.00 0.00 46 1011.6
20260508223603 84 251 5.0 10.0 0.00 0.00 0.00 45 1011.6
20260508222703 85 246 4.0 8.0 0.00 0.00 0.00 42 1011.8
20260508221803 85 252 3.0 8.0 0.00 0.00 0.00 39 1011.8
20260508220903 86 267 2.0 8.0 0.00 0.00 0.00 39 1011.9
20260508220024 86 257 3.0 7.0 0.00 0.00 0.00 38 1012.1
20260508215403 86 240 3.0 7.0 0.00 0.00 0.00 35 1012.1
20260508214524 85 241 4.0 9.0 0.00 0.00 0.00 34 1012.1
20260508213603 86 246 4.0 10.0 0.00 0.00 0.00 36 1012.1
20260508212703 86 236 4.0 8.0 0.00 0.00 0.00 37 1012.2
20260508211804 85 243 3.0 11.0 0.00 0.00 0.00 35 1012.3
20260508210903 85 244 3.0 9.0 0.00 0.00 0.00 40 1012.4
20260508210024 84 246 3.0 7.0 0.00 0.00 0.00 40 1012.5
20260508205424 84 236 3.0 8.0 0.00 0.00 0.00 40 1012.6
20260508204503 83 237 3.0 7.0 0.00 0.00 0.00 45 1012.5
20260508203605 82 251 3.0 8.0 0.00 0.00 0.00 48 1012.6
20260508202724 82 249 3.0 8.0 0.00 0.00 0.00 49 1012.7
20260508201803 81 239 4.0 9.0 0.00 0.00 0.00 50 1012.7
20260508200903 81 242 4.0 9.0 0.00 0.00 0.00 53 1012.8
20260508200003 81 238 4.0 8.0 0.00 0.00 0.00 52 1012.9
20260508195403 80 259 3.0 8.0 0.00 0.00 0.00 53 1012.9
20260508194503 80 262 2.0 7.0 0.00 0.00 0.00 55 1013.1
20260508193603 80 237 3.0 8.0 0.00 0.00 0.00 56 1013.2
20260508192703 80 237 2.0 8.0 0.00 0.00 0.00 55 1013.3
20260508191804 79 258 3.0 7.0 0.00 0.00 0.00 57 1013.3
20260508190903 78 237 1.0 6.0 0.00 0.00 0.00 58 1013.5
20260508190003 77 248 2.0 6.0 0.00 0.00 0.00 58 1013.6
20260508185403 77 237 3.0 6.0 0.00 0.00 0.00 58 1013.7
20260508184524 77 238 1.0 5.0 0.00 0.00 0.00 59 1013.7
20260508183603 76 224 2.0 7.0 0.00 0.00 0.00 59 1013.8
20260508182703 76 223 1.0 6.0 0.00 0.00 0.00 60 1014.0
20260508181803 74 242 1.0 5.0 0.00 0.00 0.00 63 1014.0
20260508180924 73 227 1.0 5.0 0.00 0.00 0.00 65 1014.1
20260508180004 72 236 1.0 5.0 0.00 0.00 0.00 67 1014.1
20260508175404 71 237 1.0 5.0 0.00 0.00 0.00 68 1014.2
20260508174504 70 253 1.0 5.0 0.00 0.00 0.00 70 1014.2
20260508173603 69 235 1.0 4.0 0.00 0.00 0.00 72 1014.2
20260508172703 68 220 1.0 4.0 0.00 0.00 0.00 73 1014.2
20260508171803 66 231 2.0 4.0 0.00 0.00 0.00 76 1014.2
20260508170903 66 244 1.0 5.0 0.00 0.00 0.00 78 1014.3
20260508170005 65 236 1.0 4.0 0.00 0.00 0.00 79 1014.4
20260508165403 64 245 0.0 4.0 0.00 0.00 0.00 81 1014.5